Location: Gugi
(45.4667°N, 11.1000°E)
Time: 22:46:34
(UTC+00:00)

Cosmos 1455 - Pass Details

Date: 17 November 2019
Orbit: 499 x 524 km, 82.5° (Epoch: 05 December)

Event Time Altitude Azimuth Distance (km) Brightness Sun altitude
Rises 16:17:31 0° 215° (SW) 2,599 6.8 -6.2°
Reaches altitude 10° 16:19:54 10° 229° (SW) 1,715 6.2 -6.6°
Maximum altitude 16:23:03 25° 287° (WNW) 1,044 4.5 -7.1°
Drops below altitude 10° 16:26:14 10° 344° (NNW) 1,719 4.8 -7.7°
Sets 16:28:37 0° 358° (N) 2,606 5.6 -8.1°
